TimeIST,TemperatureF,Dew PointF,Humidity,Sea Level PressureIn,VisibilityMPH,Wind Direction,Wind SpeedMPH,Gust SpeedMPH,PrecipitationIn,Events,Conditions,WindDirDegrees,DateUTC
12:00 AM,59.0,57.2,94,29.62,6.2,WSW,13.8,-,N/A,,Mostly Cloudy,250,2012-09-09 23:00:00
12:30 AM,59.0,57.2,94,29.62,6.2,WSW,10.4,-,N/A,,Mostly Cloudy,240,2012-09-09 23:30:00
1:00 AM,59,58,93,29.65,12,SW,11.2,,,,Partly Cloudy,230,2012-09-10 00:00:00
1:00 AM,59.0,57.2,94,29.65,6.2,SW,10.4,-,N/A,,Mostly Cloudy,230,2012-09-10 00:00:00
1:30 AM,59.0,57.2,94,29.65,6.2,WSW,12.7,-,N/A,,Mostly Cloudy,240,2012-09-10 00:30:00
2:00 AM,59.0,57.2,94,29.65,6.2,SW,11.5,-,N/A,,Mostly Cloudy,230,2012-09-10 01:00:00
2:30 AM,59.0,57.2,94,29.65,6.2,SW,11.5,-,N/A,,Light Drizzle,230,2012-09-10 01:30:00
3:00 AM,59.0,57.2,94,29.65,3.7,SSW,9.2,-,N/A,,Light Drizzle,210,2012-09-10 02:00:00
3:30 AM,59.0,57.2,94,29.65,5.0,SSW,6.9,-,N/A,,Light Drizzle,200,2012-09-10 02:30:00
4:00 AM,57.2,57.2,100,29.62,5.0,South,6.9,-,N/A,,Light Drizzle,180,2012-09-10 03:00:00
4:30 AM,57.2,57.2,100,29.62,5.0,South,8.1,-,N/A,,Light Drizzle,190,2012-09-10 03:30:00
5:00 AM,57.2,57.2,100,29.62,6.2,South,6.9,-,N/A,,Mostly Cloudy,190,2012-09-10 04:00:00
5:30 AM,57.2,57.2,100,29.62,6.2,SSW,9.2,-,N/A,,Mostly Cloudy,210,2012-09-10 04:30:00
6:00 AM,57.2,57.2,100,29.62,2.5,SSW,9.2,-,N/A,,Light Drizzle,200,2012-09-10 05:00:00
6:30 AM,57.2,57.2,100,29.62,5.0,SW,9.2,-,N/A,,Mostly Cloudy,230,2012-09-10 05:30:00
7:00 AM,58,58,98,29.64,9,SSW,6.7,,,Rain,Light Drizzle,210,2012-09-10 06:00:00
7:00 AM,57.2,57.2,100,29.62,6.2,SSW,5.8,-,N/A,,Mostly Cloudy,210,2012-09-10 06:00:00
7:30 AM,57.2,57.2,100,29.62,-9999.0,SSW,4.6,-,N/A,Rain,Light Rain,210,2012-09-10 06:30:00
8:00 AM,57.2,57.2,100,29.65,6.2,WNW,5.8,-,N/A,,Overcast,300,2012-09-10 07:00:00
8:30 AM,57.2,57.2,100,29.65,6.2,NW,6.9,-,N/A,,Mostly Cloudy,310,2012-09-10 07:30:00
9:00 AM,55.4,55.4,100,29.65,3.1,NNW,10.4,-,N/A,,Light Drizzle,340,2012-09-10 08:00:00
9:30 AM,55.4,53.6,94,29.65,5.6,North,11.5,-,N/A,,Light Drizzle,350,2012-09-10 08:30:00
10:00 AM,55.4,53.6,94,29.65,4.3,North,12.7,-,N/A,Rain,Light Rain,10,2012-09-10 09:00:00
10:30 AM,53.6,53.6,100,29.65,3.1,North,8.1,-,N/A,Rain,Light Rain,350,2012-09-10 09:30:00
11:00 AM,53.6,53.6,100,29.68,1.9,NNW,13.8,-,N/A,Rain,Light Rain,340,2012-09-10 10:00:00
11:30 AM,53.6,53.6,100,29.68,2.5,NNW,9.2,-,N/A,Rain,Light Rain,340,2012-09-10 10:30:00
12:00 PM,53.6,53.6,100,29.68,2.5,North,6.9,-,N/A,Rain,Light Rain,350,2012-09-10 11:00:00
12:30 PM,55.4,53.6,94,29.68,6.2,North,11.5,-,N/A,Rain,Light Rain,10,2012-09-10 11:30:00
1:00 PM,55,52,85,29.70,12,North,11.2,,,Rain,Light Rain,10,2012-09-10 12:00:00
1:00 PM,55.4,51.8,88,29.68,6.2,North,10.4,-,N/A,Rain,Light Rain,10,2012-09-10 12:00:00
1:30 PM,55.4,51.8,88,29.65,6.2,NE,11.5,-,N/A,,Mostly Cloudy,40,2012-09-10 12:30:00
2:00 PM,55.4,50.0,82,29.68,6.2,North,6.9,-,N/A,,Mostly Cloudy,360,2012-09-10 13:00:00
2:30 PM,55.4,50.0,82,29.68,6.2,NNW,8.1,-,N/A,,Mostly Cloudy,340,2012-09-10 13:30:00
3:00 PM,55.4,50.0,82,29.68,6.2,NNW,8.1,-,N/A,,Mostly Cloudy,330,2012-09-10 14:00:00
3:30 PM,55.4,48.2,77,29.71,6.2,NW,6.9,-,N/A,Rain,Light Rain,320,2012-09-10 14:30:00
4:00 PM,55.4,50.0,82,29.71,6.2,NNW,6.9,-,N/A,Rain,Light Rain,340,2012-09-10 15:00:00
4:30 PM,55.4,50.0,82,29.71,6.2,NNW,3.5,-,N/A,,Mostly Cloudy,330,2012-09-10 15:30:00
5:00 PM,55.4,50.0,82,29.71,6.2,WNW,5.8,-,N/A,Rain,Light Rain,300,2012-09-10 16:00:00
5:30 PM,55.4,51.8,88,29.71,6.2,Calm,Calm,-,N/A,,Mostly Cloudy,0,2012-09-10 16:30:00
6:00 PM,55.4,50.0,82,29.71,6.2,WNW,2.3,-,N/A,Rain,Light Rain Showers,290,2012-09-10 17:00:00
6:30 PM,57.2,51.8,82,29.71,6.2,West,6.9,-,N/A,,Mostly Cloudy,270,2012-09-10 17:30:00
7:00 PM,55,49,74,29.75,7,West,8.9,,,Rain,Light Rain Showers,260,2012-09-10 18:00:00
7:00 PM,55.4,48.2,77,29.74,6.2,West,9.2,-,N/A,,Mostly Cloudy,260,2012-09-10 18:00:00
7:30 PM,53.6,50.0,88,29.74,6.2,West,10.4,-,N/A,,Mostly Cloudy,260,2012-09-10 18:30:00
8:00 PM,53.6,50.0,88,29.74,6.2,West,9.2,-,N/A,,Mostly Cloudy,260,2012-09-10 19:00:00
8:30 PM,53.6,50.0,88,29.77,6.2,West,4.6,-,N/A,Rain,Light Rain Showers,260,2012-09-10 19:30:00
9:00 PM,53.6,51.8,94,29.77,6.2,West,8.1,-,N/A,Rain,Light Rain Showers,280,2012-09-10 20:00:00
9:30 PM,51.8,51.8,100,29.77,6.2,West,6.9,-,N/A,,Mostly Cloudy,260,2012-09-10 20:30:00
10:00 PM,50.0,48.2,94,29.80,6.2,WSW,10.4,-,N/A,,Scattered Clouds,240,2012-09-10 21:00:00
10:30 PM,50.0,48.2,94,29.80,6.2,WSW,8.1,-,N/A,,Scattered Clouds,240,2012-09-10 21:30:00
11:00 PM,51.8,50.0,94,29.80,6.2,WSW,11.5,-,N/A,,Scattered Clouds,240,2012-09-10 22:00:00
11:30 PM,51.8,50.0,94,29.80,6.2,WSW,5.8,-,N/A,,Mostly Cloudy,250,2012-09-10 22:30:00